St. Cloud, MN

5:41 PM CDT on May 25, 2017 (GMT -0500)
Saint Cloud Regional

Weather History for KSTC - April, 2014

Change the Weather History Date:

Tuesday, April 8, 2014

  Actual Average Record
Temperature  
Mean Temperature 42 °F 41 °F  
Max Temperature 52 °F 52 °F 81 °F (1931)
Min Temperature 32 °F 29 °F 7 °F (1997)
Degree Days  
Heating Degree Days 23 24  
Month to date heating degree days 228 208  
Since 1 July heating degree days 8744 7758  
Cooling Degree Days 0 0  
Month to date cooling degree days 0 0  
Year to date cooling degree days 0 0  
Moisture  
Dew Point 27 °F    
Average Humidity 55    
Maximum Humidity 75    
Minimum Humidity 35    
Precipitation  
Precipitation 0.00 in 0.08 in 0.76 in (1969)
Month to date precipitation 0.40 0.57  
Year to date precipitation 4.11 3.36  
Snow  
Snow 0.00 in 0.20 in 4.00 in (1908)
Month to date snowfall 3.5 1.2  
Since 1 July snowfall 67.0 43.9  
Snow Depth 1.00 in    
Sea Level Pressure  
Sea Level Pressure 29.99 in    
Wind  
Wind Speed 10 mph (NW)    
Max Wind Speed 18 mph    
Max Gust Speed 24 mph    
Visibility 10 miles    
Events      
T = Trace of Precipitation, MM = Missing Value Source: NWS Daily Summary

Daily Weather History Graph

Daily Weather History Graph

Search for Another Location

Airport or City:

Trip Planner

Search our weather history database for the weather conditions in past years. The results will help you decide how hot, cold, wet, or windy it might be!

Date:

Astronomy

Apr. 08, 2014 Rise Set
Actual Time 6:43 AM CDT 7:53 PM CDT
Civil Twilight 6:12 AM CDT 8:24 PM CDT
Nautical Twilight 5:36 AM CDT 9:00 PM CDT
Astronomical Twilight 4:57 AM CDT 9:39 PM CDT
Moon 1:31 PM CDT (4/8) 3:14 AM CDT (4/8)
Length of Visible Light 14h 11m
Length of Day
13h 10m
Waxing Gibbous, 63% of the Moon is Illuminated
Apr 8
Waxing Gibbous
Apr 15
Full
Apr 22
Last Quarter
Apr 29
New
May 6
First Quarter

Hourly Weather History & Observations

Time (CDT) Temp. Windchill Dew Point Humidity Pressure Visibility Wind Dir Wind Speed Gust Speed Precip Events Conditions
12:53 AM 39.0 °F 34.0 °F 27.0 °F 62% 29.88 in 10.0 mi NW 6.9 mph - N/A   Clear
1:53 AM 37.9 °F 32.1 °F 26.1 °F 62% 29.89 in 10.0 mi NNW 8.1 mph - N/A   Clear
2:53 AM 37.0 °F 29.8 °F 26.1 °F 65% 29.89 in 10.0 mi NNW 10.4 mph - N/A   Clear
3:53 AM 35.1 °F 27.9 °F 25.0 °F 67% 29.90 in 10.0 mi NNW 9.2 mph - N/A   Clear
4:53 AM 34.0 °F 25.5 °F 26.1 °F 73% 29.91 in 10.0 mi NW 11.5 mph - N/A   Clear
5:53 AM 34.0 °F 25.5 °F 27.0 °F 75% 29.93 in 10.0 mi NNW 11.5 mph - N/A   Clear
6:53 AM 34.0 °F 26.0 °F 27.0 °F 75% 29.96 in 10.0 mi NNW 10.4 mph - N/A   Clear
7:53 AM 35.1 °F 25.9 °F 28.0 °F 76% 29.99 in 10.0 mi NNW 13.8 mph 21.9 mph N/A   Clear
8:53 AM 37.0 °F 29.3 °F 28.0 °F 70% 30.00 in 10.0 mi NNW 11.5 mph 21.9 mph N/A   Partly Cloudy
9:53 AM 39.9 °F 31.8 °F 28.9 °F 65% 30.02 in 10.0 mi NNW 15.0 mph 23.0 mph N/A   Clear
10:53 AM 43.0 °F 36.0 °F 30.0 °F 60% 30.04 in 10.0 mi NW 13.8 mph - N/A   Clear
11:53 AM 45.0 °F 38.9 °F 30.0 °F 56% 30.06 in 10.0 mi NNW 12.7 mph 20.7 mph N/A   Clear
12:53 PM 46.0 °F 39.9 °F 30.9 °F 56% 30.05 in 10.0 mi NW 13.8 mph 20.7 mph N/A   Scattered Clouds
1:53 PM 48.9 °F - 28.9 °F 46% 30.04 in 10.0 mi NNW 10.4 mph - N/A   Clear
2:53 PM 48.9 °F - 28.0 °F 44% 30.03 in 10.0 mi NNW 10.4 mph - N/A   Scattered Clouds
3:53 PM 51.1 °F - 28.0 °F 41% 30.02 in 10.0 mi NNW 8.1 mph 16.1 mph N/A   Scattered Clouds
4:53 PM 51.1 °F - 27.0 °F 39% 30.02 in 10.0 mi NW 13.8 mph 23.0 mph N/A   Clear
5:53 PM 51.1 °F - 24.1 °F 35% 30.01 in 10.0 mi NW 16.1 mph - N/A   Clear
6:53 PM 50.0 °F - 26.1 °F 39% 30.02 in 10.0 mi NW 10.4 mph - N/A   Clear
7:53 PM 44.1 °F 39.5 °F 28.0 °F 53% 30.03 in 10.0 mi WNW 8.1 mph - N/A   Clear
8:53 PM 43.0 °F 41.3 °F 26.1 °F 51% 30.03 in 10.0 mi West 3.5 mph - N/A   Clear
9:53 PM 39.9 °F 36.7 °F 28.0 °F 63% 30.02 in 10.0 mi WSW 4.6 mph - N/A   Clear
10:53 PM 37.0 °F - 26.1 °F 65% 30.00 in 10.0 mi Calm Calm - N/A   Clear
11:53 PM 36.0 °F - 26.1 °F 67% 30.00 in 10.0 mi Calm Calm - N/A   Clear